Regional Weather Roundup
Issued by NWS

Home | Current Version | Previous Version | Graphics & Text | Print | Product List | Glossary On
Versions: 1 2 3 4 5 6 7 8 9 10 11 12 13 14 15 16 17 18 19 20 21 22 23 24 25 26 27 28 29 30 31 32 33 34 35 36 37 38 39 40 41 42 43 44 45 46 47 48 49 50
000
ASUS43 KLMK 260710
RWRKY
KENTUCKY REGIONAL WEATHER ROUNDUP
NATIONAL WEATHER SERVICE LOUISVILLE KY
300 AM EDT THU APR 26 2018

NOTE "FAIR" INDICATES FEW OR NO CLOUDS BELOW 12,000 FEET
WITH NO SIGNIFICANT WEATHER AND/OR OBSTRUCTIONS TO VISIBILITY.

KYZ001>023-026-027-061>063-070>075-260800-
WESTERN AND SOUTH CENTRAL KENTUCKY

CITY           SKY/WX    TMP DP  RH WIND       PRES   REMARKS
PADUCAH        LGT RAIN  56  54  93 NE3       29.88F
HENDERSON      MOCLDY    58  46  64 N12       29.90F
OWENSBORO      FAIR      59  48  67 NE7       29.89F
HOPKINSVILLE   FAIR      57  54  89 W5        29.88F
BOWLING GREEN  FAIR      59  53  80 CALM      29.87F
GLASGOW        FAIR      53  50  92 CALM      29.88F
$$

KYZ024-025-028>034-038-045-046-053-260800-
NORTH CENTRAL KENTUCKY

CITY           SKY/WX    TMP DP  RH WIND       PRES   REMARKS
LOUISVILLE/SDF CLOUDY    55  37  50 N9        29.91S
LOUISVILLE/LOU FAIR      54  39  57 N8        29.91F
FORT KNOX      CLOUDY    55  42  62 N7        29.90F
$$

KYZ035>037-039>044-047>052-055>060-089>105-260800-
NORTHEAST KENTUCKY

CITY           SKY/WX    TMP DP  RH WIND       PRES   REMARKS
LEXINGTON      FAIR      53  43  68 N6        29.90F
COVINGTON      CLOUDY    48  34  58 N6        29.91F
FRANKFORT      FAIR      52  44  74 N3        29.89F
$$

KYZ054-064>069-076>088-106>120-260800-
SOUTHEAST KENTUCKY

CITY           SKY/WX    TMP DP  RH WIND       PRES   REMARKS
JACKSON        FAIR      50  49  96 CALM      29.90F FOG
LONDON         FOG       47  47 100 CALM      29.90F VSB 1
SOMERSET       FAIR      46  46 100 CALM      29.91F FOG
MIDDLESBORO    CLOUDY    49  49 100 CALM      29.93F
MONTICELLO     NOT AVBL
$$





USA.gov is the U.S. government's official web portal to all federal, state and local government web resources and services.